Regional Weather Roundup
Issued by NWS

Home | Current Version | Previous Version | Graphics & Text | Print | Product List | Glossary Off
Versions: 1 2 3 4 5 6 7 8 9 10 11 12 13 14 15 16 17 18 19 20 21 22 23 24 25 26 27 28 29 30 31 32 33 34 35 36 37 38 39 40 41 42 43 44 45 46 47 48 49 50

000
ASUS43 KMPX 271401
RWRMN
WEATHER ROUNDUP FOR MINNESOTA
NATIONAL WEATHER SERVICE TWIN CITIES/CHANHASSEN MN
900 AM CDT WED MAY 27 2015


NOTE: "FAIR" INDICATES FEW OR NO CLOUDS BELOW 12,000 FEET WITH NO
SIGNIFICANT WEATHER AND/OR OBSTRUCTIONS TO VISIBILITY. N/A MEANS
CURRENT SKY AND/OR WEATHER CONDITIONS ARE NOT AVAILABLE.

MNZ060>063-068>070-271500-
   Twin Cities Metro

CITY           SKY/WX    TMP DP  RH WIND       PRES   REMARKS
TWIN CITIES    PTSUNNY   63  58  83 S7        29.92S
ST PAUL        PTSUNNY   64  58  80 SW5       29.93R
CRYSTAL        PTSUNNY   64  57  78 SW7       29.90S
BLAINE         CLOUDY    64  61  88 SW5       29.91S
LAKEVILLE      PTSUNNY   63  57  82 CALM      29.94R
EDEN PRAIRIE   PTSUNNY   61  58  90 SW5       29.92R
SOUTH ST PAUL  PTSUNNY   64  58  81 S6        29.93R
LAKE ELMO      FAIR      64  59  82 SW7       29.94R
$$
MNZ001>005-007-008-013>017-022>024-027-028-271500-
   Northwest Minnesota

CITY           SKY/WX    TMP DP  RH WIND       PRES   REMARKS
BEMIDJI        SUNNY     65  51  62 N6        29.89R
HALLOCK        MOSUNNY   55  45  67 N14       29.94R
ROSEAU         MOSUNNY   57  48  72 NW6       29.91R
WARROAD        MOSUNNY   55  48  76 NW8       29.91R
THIEF RVR FALL PTSUNNY   57  48  72 NW7       29.92R
CROOKSTON      MOSUNNY   57  46  67 N13       29.94R
FOSSTON        MOSUNNY   63  50  63 NW8       29.92R
DETROIT LAKES  SUNNY     63  52  67 NW8       29.93R
MOORHEAD       SUNNY     63  54  72 N10       29.93R
PARK RAPIDS    SUNNY     67  53  61 NW8       29.89R
MAHNOMEN       FAIR      61  53  74 N8        29.90R
$$
MNZ006-009>011-018-025>026-271500-
   North Central Minnesota

CITY           SKY/WX    TMP DP  RH WIND       PRES   REMARKS
BAUDETTE       MOSUNNY   58  49  72 NW13      29.87R
FLAG ISLAND    SUNNY     55  46  71 NW13      29.88R
INTL FALLS     SUNNY     64  52  64 NW9       29.84R
WASKISH        MOSUNNY   63  54  72 CALM      29.87R
BIG FORK       MOSUNNY   66  54  63 CALM      29.86R
LONGVILLE      MOSUNNY   61  55  82 W3        29.88R
GRAND RAPIDS   PTSUNNY   63  54  72 NW8       29.87R
CRANE LAKE     SUNNY     63  54  72 N3        29.84R
COOK           SUNNY     63  55  77 W5        29.84R
WALKER         FAIR      60  54  80 W5        29.88R
$$
MNZ012-019>021-037-271500-
   Northeast Minnesota

CITY           SKY/WX    TMP DP  RH WIND       PRES   REMARKS
DULUTH         MOSUNNY   68  52  56 NW8       29.84R
HIBBING        SUNNY     65  54  67 NW5       29.84R
EVELETH        MOSUNNY   61  54  77 W3        29.85R
DULUTH HARBOR  MOSUNNY   63  55  77 S10       29.84R
TWO HARBORS    MOSUNNY   70  57  64 NW5       29.80R
SILVER BAY     MOSUNNY   73  54  49 NW3       29.79R
GRAND MARAIS     N/A     46  41  82 W10       29.75R
G MARAIS ARPRT PTSUNNY   64  48  55 W7        29.80S
$$
MNZ029>031-032-039>041-046>048-054>057-064-271500-
   West Central Minnesota

CITY           SKY/WX    TMP DP  RH WIND       PRES   REMARKS
FERGUS FALLS   SUNNY     61  54  77 NW9       29.93R
WHEATON        SUNNY     64  52  63 NW12      29.95R
MORRIS         SUNNY     66  54  63 NW10      29.92R
ALEXANDRIA     MOSUNNY   63  53  70 NW6       29.93R
ELBOW LAKE     FAIR      61  54  77 NW7       29.92S
WADENA         SUNNY     63  55  77 W6        29.90R
GLENWOOD       SUNNY     63  55  77 W12       29.93R
APPLETON       SUNNY     66  54  63 NW7       29.93S
BENSON         SUNNY     64  52  63 N10       29.93R
ORTONVILLE     SUNNY     66  52  59 NW9       29.93R
MADISON        SUNNY     68  54  60 NW9       29.94R
WILLMAR        FAIR      64  55  72 W7        29.94R
$$
MNZ033>034-036-042>043-049>051-058-059-271500-
   Central Minnesota

CITY           SKY/WX    TMP DP  RH WIND       PRES   REMARKS
ST CLOUD       SUNNY     64  56  75 SW6       29.90R
SAUK CENTRE    FAIR      63  56  76 W8        29.92R
PAYNESVILLE    SUNNY     59  55  84 SW8       29.92R
AITKIN         MOSUNNY   64  55  72 SW3       29.86R
PINE RIVER     MOSUNNY   59  55  88 CALM      29.91R
BRAINERD       MOSUNNY   61  55  81 W5        29.89R
STAPLES        SUNNY     63  55  77 W6        29.89S
LONG PRAIRIE   PTSUNNY   63  54  72 W6        29.92R
LITTLE FALLS   SUNNY     61  55  82 W3        29.90R
LITCHFIELD     SUNNY     63  57  82 W6        29.92S
BUFFALO        MOSUNNY   62  56  80 S7        29.92S
MAPLE LAKE     MOSUNNY   63  58  83 SW5       29.92R
$$
MNZ037-044-045-052-053-271500-
   East Central Minnesota

CITY           SKY/WX    TMP DP  RH WIND       PRES   REMARKS
PRINCETON      MOSUNNY   66  57  72 SW7       29.90R
MORA           MOSUNNY   61  54  77 SW5       29.90S
CAMBRIDGE      MOSUNNY   64  54  68 S7        29.88S
RUSH CITY      PTSUNNY   64  56  75 SW7       29.90R
MOOSE LAKE     MOSUNNY   63  59  88 W6        29.86R
HINCKLEY       FAIR      63  55  77 SW9       29.88S
CLOQUET        PTSUNNY   64  54  68 W7        29.86R
MCGREGOR       SUNNY     63  55  77 W3        29.87S
$$
MNZ071>073-080-081-089-090-097-098-271500-
   Southwest Minnesota

CITY           SKY/WX    TMP DP  RH WIND       PRES   REMARKS
MONTEVIDEO     SUNNY     66  55  68 NW6       29.94R
GRANITE FALLS  SUNNY     65  54  67 W9        29.95R
CANBY          SUNNY     69  53  58 NW9       29.95S
MARSHALL       SUNNY     68  52  56 W9        29.95R
REDWOOD FALLS  SUNNY     65  54  67 W9        29.94R
OLIVIA         SUNNY     63  52  67 W9        29.93R
PIPESTONE      SUNNY     63  52  67 W10       29.98S
WINDOM         SUNNY     64  55  72 W6        29.97S
WORTHINGTON    SUNNY     64  54  68 W12       29.98S
JACKSON        SUNNY     64  55  72 W10       29.97S
TRACY          SUNNY     67  55  65 W5        29.96S
SLAYTON        SUNNY     64  54  69 W12       29.99R
$$
MNZ065>067-074>077-082>085-091>093-271500-
   South Central Minnesota

CITY           SKY/WX    TMP DP  RH WIND       PRES   REMARKS
MANKATO        MOSUNNY   61  55  82 SW7       29.95S
NEW ULM        SUNNY     63  55  77 W8        29.94R
ST JAMES       SUNNY     64  57  77 SW7       29.96S
FAIRMONT       SUNNY     64  52  63 W10       29.96S
GLENCOE        MOSUNNY   62  57  85 SW5       29.92S
FARIBAULT      MOSUNNY   63  59  88 S6        29.95S
OWATONNA       MOSUNNY   63  57  82 SW7       29.96S
WASECA         MOSUNNY   63  57  82 SW6       29.97S
ALBERT LEA     MOSUNNY   64  57  77 SW3       29.97S
$$
MNZ078>079-086>088-094>096-271500-
   Southeast Minnesota

CITY           SKY/WX    TMP DP  RH WIND       PRES   REMARKS
ROCHESTER      MOSUNNY   63  58  83 W9        29.98R
RED WING       PTSUNNY   63  57  82 CALM      29.94R
STANTON        MOSUNNY   64  57  80 SW6       29.94R
DODGE CENTER   MOSUNNY   63  57  82 W9        29.96S
WINONA         MOSUNNY   61  55  82 CALM      29.95S
AUSTIN         MOSUNNY   63  57  82 CALM      29.97S
PRESTON        MOSUNNY   62  56  82 NW6       29.97S
$$
ABBREVIATIONS USED IN REMARKS
   TC - TEMPERATURES IN CELSIUS
  WCI - WIND CHILL INDEX
   HX - HEAT INDEX
  VSB - VISIBILITY
$$



USA.gov is the U.S. government's official web portal to all federal, state and local government web resources and services.